When you browse on this site, cookies collect data to enhance your experience and personalize the content and advertising you see.
Visit our Privacy Policy to learn more. By continuing to use the site, you agree to this use of cookies and data.

Tiempo cada hora Iquique

Hoy, 13 Julio, Lunes

Tiempo Temperatura Precipitaciones Viento Presión Humedad
00:00 +11°C° 0 mm 0 mps 761 mmHg 80%
01:00 +11°C° 0 mm 0 mps 761 mmHg 79%
02:00 +11°C° 0 mm 0 mps 761 mmHg 78%
03:00 +12°C° 0 mm 1 mps 761 mmHg 77%
04:00 +12°C° 0 mm 1 mps 761 mmHg 76%
05:00 +13°C° 0 mm 1 mps 761 mmHg 72%
06:00 +14°C° 0 mm 2 mps 761 mmHg 68%
07:00 +15°C° 0 mm 2 mps 761 mmHg 63%
08:00 +18°C° 0 mm 2 mps 761 mmHg 56%
09:00 +21°C° 0 mm 2 mps 762 mmHg 48%
10:00 +25°C° 0 mm 2 mps 762 mmHg 41%
11:00 +25°C° 0 mm 2 mps 761 mmHg 43%
12:00 +25°C° 0 mm 2 mps 760 mmHg 44%
13:00 +25°C° 0 mm 3 mps 760 mmHg 46%
14:00 +25°C° 0 mm 2 mps 760 mmHg 47%
15:00 +24°C° 0 mm 2 mps 760 mmHg 49%
16:00 +24°C° 0 mm 2 mps 760 mmHg 51%
17:00 +20°C° 0 mm 2 mps 760 mmHg 58%
18:00 +18°C° 0 mm 2 mps 760 mmHg 66%
19:00 +15°C° 0 mm 2 mps 760 mmHg 73%
20:00 +15°C° 0 mm 1 mps 761 mmHg 73%
21:00 +15°C° 0 mm 1 mps 761 mmHg 73%
22:00 +15°C° 0 mm 1 mps 761 mmHg 73%
23:00 +15°C° 0 mm 1 mps 761 mmHg 71%

Mañana, 14 Julio, Martes

Tiempo Temperatura Precipitaciones Viento Presión Humedad
00:00 +14°C° 0 mm 1 mps 760 mmHg 70%
01:00 +14°C° 0 mm 1 mps 760 mmHg 69%
02:00 +14°C° 0 mm 2 mps 760 mmHg 68%
03:00 +14°C° 0 mm 2 mps 759 mmHg 67%
04:00 +14°C° 0 mm 2 mps 759 mmHg 66%
05:00 +15°C° 0 mm 2 mps 759 mmHg 58%
06:00 +16°C° 0 mm 2 mps 759 mmHg 50%
07:00 +17°C° 0 mm 2 mps 759 mmHg 42%
08:00 +20°C° 0 mm 2 mps 760 mmHg 38%
09:00 +24°C° 0 mm 2 mps 760 mmHg 34%
10:00 +27°C° 0 mm 3 mps 761 mmHg 31%
11:00 +26°C° 0 mm 3 mps 760 mmHg 33%
12:00 +26°C° 0 mm 3 mps 760 mmHg 36%
13:00 +26°C° 0 mm 3 mps 759 mmHg 39%
14:00 +25°C° 0 mm 3 mps 759 mmHg 41%
15:00 +25°C° 0 mm 2 mps 759 mmHg 42%
16:00 +24°C° 0 mm 2 mps 759 mmHg 44%
17:00 +21°C° 0 mm 2 mps 760 mmHg 51%
18:00 +19°C° 0 mm 1 mps 760 mmHg 58%
19:00 +16°C° 0 mm 1 mps 760 mmHg 65%
20:00 +16°C° 0 mm 1 mps 760 mmHg 66%
21:00 +16°C° 0 mm 1 mps 761 mmHg 67%
22:00 +15°C° 0 mm 1 mps 761 mmHg 67%
23:00 +15°C° 0 mm 1 mps 761 mmHg 67%

Pasado mañana, 15 Julio, Miércoles

Tiempo Temperatura Precipitaciones Viento Presión Humedad
00:00 +15°C° 0 mm 1 mps 760 mmHg 66%
01:00 +15°C° 0 mm 2 mps 760 mmHg 66%
02:00 +15°C° 0 mm 2 mps 760 mmHg 65%
03:00 +15°C° 0 mm 2 mps 760 mmHg 65%
04:00 +15°C° 0 mm 2 mps 759 mmHg 64%
05:00 +15°C° 0 mm 2 mps 760 mmHg 57%
06:00 +16°C° 0 mm 2 mps 760 mmHg 50%
07:00 +17°C° 0 mm 2 mps 760 mmHg 43%
08:00 +20°C° 0 mm 2 mps 760 mmHg 40%
09:00 +22°C° 0 mm 3 mps 760 mmHg 37%
10:00 +26°C° 0 mm 3 mps 760 mmHg 34%
11:00 +26°C° 0 mm 3 mps 760 mmHg 35%
12:00 +26°C° 0 mm 3 mps 759 mmHg 37%
13:00 +26°C° 0 mm 3 mps 758 mmHg 39%
14:00 +26°C° 0 mm 3 mps 758 mmHg 42%
15:00 +25°C° 0 mm 3 mps 758 mmHg 45%
16:00 +24°C° 0 mm 3 mps 758 mmHg 48%
17:00 +21°C° 0 mm 3 mps 758 mmHg 54%
18:00 +19°C° 0 mm 2 mps 759 mmHg 61%
19:00 +17°C° 0 mm 2 mps 759 mmHg 67%
20:00 +17°C° 0 mm 2 mps 759 mmHg 66%
21:00 +17°C° 0 mm 2 mps 759 mmHg 64%
22:00 +17°C° 0 mm 2 mps 759 mmHg 63%
23:00 +16°C° 0 mm 2 mps 759 mmHg 64%

16 Julio, Jueves

Tiempo Temperatura Precipitaciones Viento Presión Humedad
00:00 +16°C° 0 mm 2 mps 759 mmHg 65%
01:00 +16°C° 0 mm 2 mps 759 mmHg 66%
02:00 +15°C° 0 mm 2 mps 759 mmHg 66%
03:00 +15°C° 0 mm 2 mps 758 mmHg 66%
04:00 +15°C° 0 mm 2 mps 758 mmHg 66%
05:00 +16°C° 0 mm 2 mps 758 mmHg 58%
06:00 +17°C° 0 mm 2 mps 759 mmHg 51%
07:00 +18°C° 0 mm 2 mps 759 mmHg 43%
08:00 +20°C° 0 mm 2 mps 759 mmHg 42%
09:00 +23°C° 0 mm 2 mps 759 mmHg 41%
10:00 +25°C° 0 mm 2 mps 759 mmHg 41%
11:00 +25°C° 0 mm 2 mps 758 mmHg 44%
12:00 +25°C° 0 mm 3 mps 758 mmHg 47%
13:00 +25°C° 0 mm 3 mps 758 mmHg 50%
14:00 +24°C° 0 mm 2 mps 758 mmHg 53%
15:00 +23°C° 0 mm 2 mps 758 mmHg 56%
16:00 +23°C° 0 mm 2 mps 758 mmHg 59%
17:00 +21°C° 0 mm 1 mps 758 mmHg 66%
18:00 +18°C° 0 mm 1 mps 759 mmHg 74%
19:00 +15°C° 0 mm 1 mps 759 mmHg 81%
20:00 +15°C° 0 mm 1 mps 759 mmHg 79%
21:00 +15°C° 0 mm 1 mps 760 mmHg 76%
22:00 +15°C° 0 mm 1 mps 760 mmHg 73%
23:00 +15°C° 0 mm 1 mps 760 mmHg 76%

17 Julio, Viernes

Tiempo Temperatura Precipitaciones Viento Presión Humedad
00:00 +14°C° 0 mm 1 mps 760 mmHg 78%
01:00 +14°C° 0 mm 1 mps 760 mmHg 81%
02:00 +14°C° 0 mm 1 mps 759 mmHg 83%
03:00 +13°C° 0 mm 1 mps 759 mmHg 85%
04:00 +13°C° 0 mm 1 mps 759 mmHg 87%
05:00 +14°C° 0 mm 1 mps 759 mmHg 82%
06:00 +15°C° 0 mm 1 mps 759 mmHg 77%
07:00 +16°C° 0 mm 1 mps 760 mmHg 73%
08:00 +19°C° 0 mm 1 mps 760 mmHg 65%
09:00 +21°C° 0 mm 1 mps 760 mmHg 58%
10:00 +23°C° 0 mm 1 mps 760 mmHg 51%
11:00 +23°C° 0 mm 1 mps 760 mmHg 52%
12:00 +23°C° 0 mm 2 mps 759 mmHg 54%
13:00 +23°C° 0 mm 2 mps 759 mmHg 55%
14:00 +21°C° 0 mm 2 mps 759 mmHg 58%
15:00 +20°C° 0 mm 2 mps 759 mmHg 61%
16:00 +19°C° 0 mm 2 mps 759 mmHg 64%
17:00 +19°C° 0 mm 1 mps 759 mmHg 71%
18:00 +16°C° 0 mm 1 mps 760 mmHg 78%
19:00 +14°C° 0 mm 1 mps 760 mmHg 85%
20:00 +14°C° 0 mm 1 mps 760 mmHg 85%
21:00 +14°C° 0 mm 1 mps 760 mmHg 84%
22:00 +14°C° 0 mm 1 mps 761 mmHg 83%
23:00 +14°C° 0 mm 1 mps 760 mmHg 83%

18 Julio, Sábado

Tiempo Temperatura Precipitaciones Viento Presión Humedad
00:00 +14°C° 0 mm 1 mps 760 mmHg 83%
01:00 +14°C° 0 mm 1 mps 760 mmHg 82%
02:00 +13°C° 0 mm 1 mps 760 mmHg 83%
03:00 +13°C° 0 mm 1 mps 759 mmHg 83%
04:00 +12°C° 0 mm 1 mps 759 mmHg 84%
05:00 +13°C° 0 mm 1 mps 759 mmHg 83%
06:00 +14°C° 0 mm 1 mps 759 mmHg 82%
07:00 +14°C° 0 mm 1 mps 759 mmHg 81%
08:00 +16°C° 0 mm 1 mps 760 mmHg 73%
09:00 +19°C° 0 mm 1 mps 760 mmHg 66%
10:00 +21°C° 0 mm 1 mps 760 mmHg 58%
11:00 +21°C° 0 mm 1 mps 759 mmHg 58%
12:00 +21°C° 0 mm 2 mps 759 mmHg 59%
13:00 +21°C° 0 mm 2 mps 758 mmHg 59%
14:00 +20°C° 0 mm 2 mps 758 mmHg 62%
15:00 +19°C° 0 mm 2 mps 758 mmHg 65%
16:00 +18°C° 0 mm 2 mps 758 mmHg 68%
17:00 +18°C° 0 mm 1 mps 759 mmHg 75%
18:00 +15°C° 0 mm 1 mps 759 mmHg 82%
19:00 +13°C° 0 mm 1 mps 760 mmHg 89%
20:00 +13°C° 0 mm 1 mps 760 mmHg 88%
21:00 +13°C° 0 mm 1 mps 760 mmHg 87%
22:00 +13°C° 0 mm 1 mps 760 mmHg 86%
23:00 +13°C° 0 mm 1 mps 760 mmHg 85%
Mostrar más